Location: Del Amo
(33.8464°N, 118.2104°W)
Time: 17:18:00
(UTC+00:00)

Vanguard 2 Rocket - Pass Details

Date: 13 September 2024
Orbit: 553 x 3298 km, 32.9° (Epoch: 11 October)

Event Time Altitude Azimuth Distance (km) Brightness Sun altitude
Rises 15:14:07 0° 285° (WNW) 6,537 10.7 19.6°
Reaches altitude 10° 15:18:10 10° 282° (WNW) 5,772 10.5 20.4°
Maximum altitude 15:36:31 57° 210° (SSW) 3,690 10.2 24.2°
Drops below altitude 10° 15:54:31 10° 138° (SE) 5,642 12.0 27.8°
Sets 15:58:27 0° 134° (SE) 6,386 12.1 28.6°
